Las Cruces, NM

1:40 PM MST on November 19, 2017 (GMT -0700)
Las Cruces International

Weather History for KLRU - May, 2014

Change the Weather History Date:

Wednesday, May 14, 2014

  Actual Average Record
Temperature  
Mean Temperature 54 °F -  
Max Temperature 68 °F 83 °F 93 °F (2006)
Min Temperature 39 °F 56 °F 39 °F (2014)
Degree Days  
Heating Degree Days 12    
Growing Degree Days 4 (Base 50)    
Moisture  
Dew Point 16 °F    
Average Humidity 23    
Maximum Humidity 40    
Minimum Humidity 13    
Precipitation  
Precipitation 0.00 in - - ()
Sea Level Pressure  
Sea Level Pressure 30.38 in    
Wind  
Wind Speed 5 mph (SE)    
Max Wind Speed 13 mph    
Max Gust Speed 18 mph    
Visibility 10 miles    
Events      
Averages and records for this station are not official NWS values.
T = Trace of Precipitation, MM = Missing Value Source: NWS Daily Summary

Daily Weather History Graph

Daily Weather History Graph

Search for Another Location

Airport or City:

Trip Planner

Search our weather history database for the weather conditions in past years. The results will help you decide how hot, cold, wet, or windy it might be!

Date:

Astronomy

May. 14, 2014 Rise Set
Actual Time 6:10 AM MDT 7:58 PM MDT
Civil Twilight 5:43 AM MDT 8:24 PM MDT
Nautical Twilight 5:11 AM MDT 8:57 PM MDT
Astronomical Twilight 4:36 AM MDT 9:32 PM MDT
Moon 8:07 PM MDT (5/14) 6:08 AM MDT (5/14)
Length of Visible Light 14h 41m
Length of Day
13h 47m
Full, 100% of the Moon is Illuminated
May 14
Full
May 14
Full
May 21
Last Quarter
May 28
New
Jun 5
First Quarter

Hourly Weather History & Observations

Time (MDT) Temp. Windchill Dew Point Humidity Pressure Visibility Wind Dir Wind Speed Gust Speed Precip Events Conditions
12:15 AM 51.3 °F - 22.1 °F 32% 30.40 in 10.0 mi SE 5.8 mph - N/A   Clear
12:35 AM 50.9 °F - 21.7 °F 32% 30.40 in 10.0 mi ESE 4.6 mph - N/A   Clear
12:55 AM 50.9 °F - 21.6 °F 32% 30.40 in 10.0 mi SE 8.1 mph - N/A   Clear
1:15 AM 49.8 °F - 21.2 °F 32% 30.40 in 10.0 mi SE 4.6 mph - N/A   Clear
1:35 AM 50.2 °F - 21.2 °F 32% 30.40 in 10.0 mi ESE 9.2 mph - N/A   Clear
1:55 AM 50.4 °F - 21.2 °F 32% 30.40 in 10.0 mi SE 8.1 mph - N/A   Clear
2:15 AM 49.1 °F - 21.2 °F 33% 30.40 in 10.0 mi SE 4.6 mph - N/A   Scattered Clouds
2:35 AM 48.6 °F - 20.8 °F 34% 30.40 in 10.0 mi SE 4.6 mph - N/A   Clear
2:55 AM 48.2 °F - 20.3 °F 33% 30.40 in 10.0 mi SSE 4.6 mph - N/A   Clear
3:15 AM 48.0 °F - 20.3 °F 33% 30.40 in 10.0 mi Calm Calm - N/A   Clear
3:35 AM 46.2 °F - 19.2 °F 34% 30.40 in 10.0 mi Calm Calm - N/A   Clear
3:55 AM 43.7 °F - 18.7 °F 37% 30.41 in 10.0 mi Calm Calm - N/A   Scattered Clouds
4:15 AM 42.4 °F 38.8 °F 18.5 °F 38% 30.41 in 10.0 mi NNW 5.8 mph - N/A   Scattered Clouds
4:35 AM 42.8 °F 38.6 °F 19.4 °F 39% 30.42 in 10.0 mi NNW 6.9 mph - N/A   Clear
4:55 AM 43.0 °F 39.5 °F 19.4 °F 39% 30.43 in 10.0 mi NW 5.8 mph - N/A   Clear
5:15 AM 42.6 °F 39.0 °F 19.0 °F 39% 30.43 in 10.0 mi West 5.8 mph - N/A   Clear
5:35 AM 42.3 °F - 18.7 °F 39% 30.42 in 10.0 mi Calm Calm - N/A   Clear
5:55 AM 41.2 °F 39.2 °F 18.1 °F 40% 30.42 in 10.0 mi West 3.5 mph - N/A   Clear
6:15 AM 40.3 °F 37.1 °F 17.6 °F 40% 30.43 in 10.0 mi West 4.6 mph - N/A   Clear
6:35 AM 39.7 °F 37.6 °F 16.9 °F 40% 30.43 in 10.0 mi WNW 3.5 mph - N/A   Clear
6:55 AM 42.6 °F 39.9 °F 17.2 °F 36% 30.44 in 10.0 mi WNW 4.6 mph - N/A   Clear
7:15 AM 45.1 °F - 18.0 °F 34% 30.45 in 10.0 mi Calm Calm - N/A   Clear
7:35 AM 48.4 °F - 18.5 °F 31% 30.45 in 10.0 mi Calm Calm - N/A   Clear
7:55 AM 51.6 °F - 18.9 °F 28% 30.46 in 10.0 mi SE 5.8 mph - N/A   Clear
8:35 AM 54.0 °F - 19.4 °F 26% 30.47 in 10.0 mi SE 11.5 mph 17.3 mph N/A   Clear
8:55 AM 54.5 °F - 19.4 °F 25% 30.47 in 10.0 mi SE 12.7 mph 16.1 mph N/A   Clear
9:15 AM 55.0 °F - 19.2 °F 25% 30.47 in 10.0 mi SE 9.2 mph 17.3 mph N/A   Clear
9:35 AM 55.6 °F - 19.9 °F 25% 30.47 in 10.0 mi SE 11.5 mph - N/A   Clear
9:55 AM 56.5 °F - 19.9 °F 24% 30.47 in 10.0 mi SE 12.7 mph 18.4 mph N/A   Clear
10:15 AM 57.4 °F - 19.6 °F 23% 30.46 in 10.0 mi SE 12.7 mph - N/A   Clear
10:55 AM 59.4 °F - 18.1 °F 20% 30.46 in 10.0 mi SE 10.4 mph - N/A   Clear
11:35 AM 59.0 °F - 18.5 °F 21% 30.45 in 10.0 mi SSE 5.8 mph - N/A   Clear
11:55 AM 59.9 °F - 18.0 °F 20% 30.44 in 10.0 mi South 4.6 mph 16.1 mph N/A   Clear
12:15 PM 61.3 °F - 17.6 °F 18% 30.43 in 10.0 mi SE 5.8 mph - N/A   Clear
12:35 PM 62.6 °F - 17.2 °F 17% 30.43 in 10.0 mi ESE 8.1 mph - N/A   Clear
12:55 PM 62.1 °F - 17.2 °F 18% 30.41 in 10.0 mi NNE 6.9 mph - N/A   Clear
1:15 PM 62.8 °F - 17.8 °F 18% 30.41 in 10.0 mi SE 6.9 mph - N/A   Clear
1:35 PM 64.9 °F - 17.1 °F 16% 30.40 in 10.0 mi ESE 6.9 mph - N/A   Clear
1:55 PM 63.5 °F - 16.7 °F 16% 30.39 in 10.0 mi East 5.8 mph - N/A   Clear
2:15 PM 65.1 °F - 16.3 °F 15% 30.38 in 10.0 mi East 4.6 mph 17.3 mph N/A   Clear
2:35 PM 63.7 °F - 15.8 °F 16% 30.37 in 10.0 mi WNW 5.8 mph - N/A   Clear
2:55 PM 65.8 °F - 15.6 °F 14% 30.37 in 10.0 mi NE 8.1 mph - N/A   Clear
3:15 PM 65.5 °F - 15.3 °F 14% 30.36 in 10.0 mi East 3.5 mph - N/A   Clear
3:35 PM 66.9 °F - 15.3 °F 14% 30.35 in 10.0 mi SW 5.8 mph - N/A   Clear
3:55 PM 66.9 °F - 14.9 °F 13% 30.33 in 10.0 mi SE 3.5 mph - N/A   Clear
4:15 PM 68.0 °F - 15.3 °F 13% 30.33 in 10.0 mi SE 8.1 mph - N/A   Clear
4:35 PM 67.3 °F - 14.7 °F 13% 30.31 in 10.0 mi ENE 9.2 mph - N/A   Clear
4:55 PM 67.1 °F - 14.7 °F 13% 30.31 in 10.0 mi Calm Calm - N/A   Clear
5:15 PM 67.6 °F - 14.4 °F 13% 30.31 in 10.0 mi ESE 5.8 mph - N/A   Clear
5:35 PM 67.6 °F - 14.5 °F 13% 30.29 in 10.0 mi NNE 4.6 mph - N/A   Clear
5:55 PM 66.9 °F - 13.6 °F 13% 30.29 in 10.0 mi Calm Calm - N/A   Clear
6:15 PM 67.3 °F - 13.6 °F 13% 30.29 in 10.0 mi SSE 5.8 mph - N/A   Clear
6:35 PM 66.6 °F - 13.6 °F 13% 30.28 in 10.0 mi Calm Calm - N/A   Clear
6:55 PM 66.4 °F - 13.3 °F 13% 30.28 in 10.0 mi SSE 8.1 mph - N/A   Clear
7:15 PM 65.8 °F - 13.1 °F 13% 30.29 in 10.0 mi SE 6.9 mph - N/A   Clear
7:35 PM 64.8 °F - 12.2 °F 13% 30.29 in 10.0 mi ESE 5.8 mph - N/A   Clear
7:55 PM 63.5 °F - 11.8 °F 13% 30.29 in 10.0 mi SE 5.8 mph - N/A   Clear
8:15 PM 61.5 °F - 10.9 °F 14% 30.30 in 10.0 mi SE 5.8 mph - N/A   Clear
8:35 PM 60.1 °F - 10.2 °F 14% 30.31 in 10.0 mi SE 4.6 mph - N/A   Clear
8:55 PM 59.0 °F - 9.5 °F 14% 30.31 in 10.0 mi SSE 4.6 mph - N/A   Clear
9:15 PM 58.8 °F - 9.7 °F 14% 30.32 in 10.0 mi SSE 5.8 mph - N/A   Clear
9:35 PM 58.8 °F - 9.5 °F 14% 30.33 in 10.0 mi SE 6.9 mph - N/A   Clear
10:15 PM 56.5 °F - 9.7 °F 16% 30.33 in 10.0 mi South 5.8 mph - N/A   Clear
10:35 PM 56.5 °F - 10.0 °F 16% 30.34 in 10.0 mi SSW 4.6 mph - N/A   Clear
10:55 PM 55.4 °F - 9.3 °F 16% 30.34 in 10.0 mi SSW 3.5 mph - N/A   Clear
11:15 PM 53.2 °F - 9.9 °F 18% 30.34 in 10.0 mi SSW 4.6 mph - N/A   Scattered Clouds
11:35 PM 51.6 °F - 9.1 °F 18% 30.35 in 10.0 mi Calm Calm - N/A   Clear
11:55 PM 46.8 °F - 5.4 °F 18% 30.34 in 10.0 mi Calm Calm - N/A   Clear